Hourly Data Report for January 08, 2005

SHERBROOKE A
QUEBEC

45°26'00.000" N
71°41'00.000" W
241.40 m
7028124
71610
YSC

Download Data

Hourly Data (January 2005)
Hourly Data Report for January 8, 2005
TIME
LST
Temp Definition
°C
Dew Point Definition
°C
Rel Hum Definition
%
Precip. Amount Definition
mm

Wind Dir Definition
10's deg

Wind Spd Definition
km/h
Visibility Definition
km
Stn Press Definition
kPa
Hmdx Definition


Wind Chill Definition


Weather Definition


00:00 -8.5 -11.8 77     0 15.0 99.62      
01:00 -8.5 -11.6 78     0 15.0 99.59      
02:00 -8.4 -11.1 81   14 6 15.0 99.59   -12  
03:00 -8.2 -10.7 82   1 4 15.0 99.59   -10  
04:00 -7.4 -10.2 80   9 4 15.0 99.52   -9  
05:00 -7.0 -10.2 78     0 15.0 99.46      
06:00 -6.8 -9.7 80     0 15.0 99.45      
07:00 -6.7 -9.2 82     0 15.0 99.44      
08:00 -6.7 -9.0 84     0 19.3 99.47     Cloudy
09:00 -6.6 -9.2 82     0 19.3 99.39     Mostly Cloudy
10:00 -4.6 -8.3 75   1 6 19.3 99.37   -7 Mostly Cloudy
11:00 -3.4 -8.2 69   9 6 19.3 99.27   -6 Mostly Cloudy
12:00 -2.5 -7.6 68     0 19.3 99.22     Mostly Cloudy
13:00 -2.4 -7.0 71     0 19.3 99.17     Cloudy
14:00 -2.1 -6.9 70     0 19.3 99.17     Cloudy
15:00 -2.4 -7.1 70   35 4 19.3 99.14   -4 Cloudy
16:00 -2.5 -6.9 72   34 6 19.3 99.11   -5 Cloudy
17:00 -2.9 -6.9 74   27 6 19.3 99.24   -5 Cloudy
18:00 -3.6 -6.7 79   23 7 15.0 99.31   -7  
19:00 -4.1 -7.2 79     0 15.0 99.39      
20:00 -4.3 -8.1 75   30 9 15.0 99.51   -8  
21:00 -5.6 -8.7 79   30 7 15.0 99.57   -9  
22:00 -5.8 -8.8 79   32 9 15.0 99.61   -10  
23:00 -8.9 -11.1 84   22 4 15.0 99.72   -11  

Notes on Data Quality.

Legend

  • E = Estimated
  • M = Missing
  • NA = Not Available*
  • [empty] = Indicates an unobserved value
Date modified: